Location: Poughquag
(41.6090°N, 73.6820°W)
Time: 11:02:18
(UTC-04:00)

Tiros 1 - Pass Details

Date: 01 June 2020
Orbit: 630 x 664 km, 48.4° (Epoch: 06 July)

Event Time Altitude Azimuth Distance (km) Brightness Sun altitude
Rises 15:46:08 0° 286° (WNW) 2,961 11.1 49.0°
Reaches altitude 10° 15:48:39 10° 295° (WNW) 2,045 10.4 48.5°
Maximum altitude 15:52:59 35° 2° (N) 1,031 8.5 47.7°
Drops below altitude 10° 15:57:17 10° 69° (ENE) 2,024 9.4 46.9°
Sets 15:59:45 0° 78° (ENE) 2,927 10.1 46.5°
